WAT8087 GVAC-FOOL

Flight info

Callsign WAT8087
Flight time N/A
Altitude 35000
Route AKDAK/N0467F370 DCT LIPOG DCT EGAGA DCT DEMAR DCT GARAT DCT DEVLI/N0461F390 DCT LOVLI DCT GAPAK DCT RAMOR DCT STM
Aircraft CL60/M-SBDE1E2E3FGHIJ1J4J5J7M3RWXYZ/LB1V1D1

Departure

Time N/A
Airport Amílcar Cabral International Airport (GVAC)

Arrival

Time 2026-04-30 21:50
Airport Libreville Leon M'ba International Airport (FOOL)
Time Latitude Longitude Altitude Speed Heading
2026-04-30 17:39 13.36292 -18.91579 37008 ft 493 kts 136°
2026-04-30 17:42 13.13111 -18.65675 37008 ft 493 kts 136°
2026-04-30 17:43 13.01528 -18.52761 37008 ft 493 kts 136°
2026-04-30 17:44 12.87584 -18.37241 37007 ft 493 kts 136°
2026-04-30 17:47 12.66689 -18.14032 37009 ft 493 kts 136°
2026-04-30 17:48 12.50431 -17.96015 37008 ft 493 kts 136°
2026-04-30 17:50 12.31843 -17.75456 37009 ft 493 kts 136°
2026-04-30 17:52 12.17871 -17.60031 37005 ft 493 kts 136°
2026-04-30 17:54 11.96886 -17.36907 37009 ft 493 kts 136°
2026-04-30 17:56 11.78248 -17.16413 37009 ft 492 kts 136°
2026-04-30 17:58 11.64274 -17.01074 37006 ft 493 kts 136°
2026-04-30 18:00 11.45622 -16.80632 37008 ft 493 kts 136°
2026-04-30 18:01 11.33935 -16.67842 37009 ft 493 kts 136°
2026-04-30 18:02 11.19906 -16.52509 37009 ft 493 kts 136°
2026-04-30 18:04 11.05925 -16.37248 37009 ft 492 kts 136°
2026-04-30 18:06 10.87211 -16.16853 37007 ft 493 kts 136°
2026-04-30 18:08 10.70843 -15.99043 37008 ft 492 kts 136°
2026-04-30 18:10 10.52154 -15.78740 37007 ft 493 kts 136°
2026-04-30 18:11 10.35759 -15.60957 37006 ft 492 kts 136°
2026-04-30 18:13 10.23242 -15.49235 37006 ft 490 kts 141°
2026-04-30 18:14 10.10597 -15.37633 37005 ft 490 kts 141°
2026-04-30 18:15 9.95430 -15.23709 37006 ft 490 kts 141°
2026-04-30 18:16 9.85339 -15.14446 37005 ft 490 kts 141°
2026-04-30 18:17 9.80298 -15.09820 37005 ft 490 kts 141°
2026-04-30 18:18 9.72705 -15.02855 37005 ft 490 kts 141°
2026-04-30 18:18 9.67631 -14.98203 37005 ft 490 kts 141°
2026-04-30 18:19 9.62578 -14.93572 37004 ft 490 kts 141°
2026-04-30 18:19 9.57536 -14.88951 37005 ft 490 kts 141°
2026-04-30 18:20 9.52477 -14.84318 37005 ft 490 kts 141°
2026-04-30 18:20 9.47442 -14.79708 37006 ft 490 kts 141°
2026-04-30 18:21 9.42382 -14.75076 37006 ft 490 kts 141°
2026-04-30 18:21 9.37338 -14.70462 37005 ft 489 kts 141°
2026-04-30 18:22 9.32240 -14.65877 37005 ft 489 kts 142°
2026-04-30 18:22 9.24535 -14.59101 37005 ft 489 kts 142°
2026-04-30 18:23 9.19400 -14.54585 37005 ft 489 kts 142°
2026-04-30 18:23 9.14266 -14.50072 37004 ft 489 kts 142°
2026-04-30 18:24 9.06557 -14.43297 37005 ft 488 kts 142°
2026-04-30 18:25 9.01450 -14.38811 37004 ft 489 kts 142°
2026-04-30 18:25 8.93721 -14.32025 37004 ft 488 kts 142°
2026-04-30 18:26 8.86057 -14.25299 37004 ft 488 kts 142°
2026-04-30 18:27 8.78346 -14.18535 37006 ft 489 kts 142°
2026-04-30 18:28 8.70649 -14.11788 37004 ft 489 kts 142°
2026-04-30 18:28 8.62932 -14.05027 37006 ft 488 kts 142°
2026-04-30 18:29 8.52679 -13.96050 37005 ft 488 kts 142°
2026-04-30 18:30 8.42400 -13.87059 37005 ft 488 kts 142°
2026-04-30 18:31 8.34684 -13.80314 37004 ft 488 kts 142°
2026-04-30 18:32 8.26990 -13.73591 37003 ft 488 kts 142°
2026-04-30 18:33 8.19293 -13.66870 37004 ft 488 kts 142°
2026-04-30 18:33 8.11771 -13.59890 37004 ft 491 kts 136°
2026-04-30 18:34 8.04740 -13.52393 37004 ft 491 kts 136°
2026-04-30 18:35 8.00063 -13.47425 37004 ft 490 kts 136°
2026-04-30 18:35 7.95358 -13.42435 37004 ft 490 kts 136°
2026-04-30 18:36 7.88312 -13.34977 37004 ft 490 kts 137°
2026-04-30 18:37 7.81211 -13.27473 37004 ft 490 kts 137°
2026-04-30 18:37 7.76505 -13.22506 37004 ft 490 kts 137°
2026-04-30 18:38 7.71798 -13.17542 37004 ft 490 kts 137°
2026-04-30 18:38 7.67087 -13.12577 37004 ft 490 kts 137°
2026-04-30 18:39 7.62404 -13.07644 37004 ft 490 kts 137°
2026-04-30 18:39 7.57670 -13.02660 37003 ft 490 kts 137°
2026-04-30 18:40 7.52974 -12.97718 37005 ft 490 kts 137°
2026-04-30 18:40 7.48259 -12.92760 37003 ft 490 kts 137°
2026-04-30 18:41 7.43516 -12.87774 37003 ft 490 kts 137°
2026-04-30 18:41 7.38827 -12.82847 37003 ft 490 kts 137°
2026-04-30 18:42 7.34117 -12.77901 37004 ft 490 kts 137°
2026-04-30 18:42 7.27044 -12.70476 37003 ft 490 kts 137°
2026-04-30 18:45 7.01094 -12.43272 37003 ft 489 kts 137°
2026-04-30 18:46 6.96374 -12.38329 37003 ft 489 kts 137°
2026-04-30 18:46 6.91651 -12.33387 37004 ft 489 kts 137°
2026-04-30 18:47 6.86932 -12.28450 37001 ft 489 kts 137°
2026-04-30 18:47 6.82240 -12.23544 37003 ft 489 kts 137°
2026-04-30 18:48 6.77532 -12.18622 37003 ft 489 kts 137°
2026-04-30 18:48 6.72808 -12.13685 37004 ft 489 kts 137°
2026-04-30 18:49 6.68075 -12.08741 37002 ft 489 kts 137°
2026-04-30 18:49 6.63387 -12.03846 37003 ft 489 kts 137°
2026-04-30 18:50 6.58649 -11.98900 37004 ft 489 kts 137°
2026-04-30 18:50 6.53914 -11.93959 37002 ft 489 kts 137°
2026-04-30 18:51 6.49212 -11.89054 37003 ft 489 kts 137°
2026-04-30 18:51 6.44482 -11.84123 37004 ft 489 kts 137°
2026-04-30 18:52 6.39771 -11.79213 37003 ft 489 kts 137°
2026-04-30 18:52 6.35063 -11.74307 37004 ft 488 kts 137°
2026-04-30 18:53 6.30348 -11.69396 37004 ft 489 kts 137°
2026-04-30 18:53 6.25624 -11.64477 37003 ft 488 kts 137°
2026-04-30 18:54 6.20905 -11.59564 37003 ft 488 kts 137°
2026-04-30 18:54 6.16177 -11.54645 37003 ft 489 kts 137°
2026-04-30 18:55 6.11482 -11.49762 37003 ft 488 kts 137°
2026-04-30 18:55 6.04402 -11.42400 37002 ft 488 kts 137°
2026-04-30 18:56 5.97328 -11.35049 37004 ft 488 kts 137°
2026-04-30 18:57 5.90254 -11.27701 37003 ft 488 kts 137°
2026-04-30 18:57 5.85520 -11.22785 37001 ft 488 kts 137°
2026-04-30 18:58 5.78437 -11.15433 37003 ft 488 kts 137°
2026-04-30 18:59 5.71374 -11.08105 37004 ft 488 kts 137°
2026-04-30 19:00 5.64770 -11.00360 37004 ft 493 kts 125°
2026-04-30 19:00 5.63069 -10.97328 37003 ft 495 kts 118°
2026-04-30 19:01 5.57377 -10.84744 37003 ft 495 kts 116°
2026-04-30 19:02 5.53125 -10.75331 37003 ft 496 kts 117°
2026-04-30 19:03 5.47430 -10.62754 37004 ft 496 kts 117°
2026-04-30 19:04 5.41721 -10.50172 37004 ft 495 kts 117°
2026-04-30 19:05 5.36033 -10.37653 37004 ft 495 kts 117°
2026-04-30 19:06 5.30310 -10.25072 37003 ft 495 kts 117°
2026-04-30 19:06 5.26027 -10.15663 37003 ft 495 kts 117°
2026-04-30 19:07 5.21737 -10.06244 37000 ft 495 kts 117°
2026-04-30 19:08 5.16026 -9.93713 37002 ft 495 kts 117°
2026-04-30 19:09 5.11756 -9.84351 37002 ft 494 kts 117°
2026-04-30 19:09 5.08894 -9.78077 37001 ft 494 kts 117°
2026-04-30 19:10 5.03177 -9.65551 37002 ft 494 kts 117°
2026-04-30 19:11 4.98892 -9.56168 37002 ft 494 kts 117°
2026-04-30 19:12 4.96042 -9.49929 37001 ft 494 kts 117°
2026-04-30 19:12 4.93179 -9.43662 37001 ft 494 kts 117°
2026-04-30 19:13 4.87374 -9.31221 37000 ft 493 kts 118°
2026-04-30 19:14 4.84389 -9.25027 37001 ft 493 kts 118°
2026-04-30 19:14 4.81411 -9.18844 37001 ft 493 kts 118°
2026-04-30 19:15 4.78441 -9.12679 37002 ft 493 kts 118°
2026-04-30 19:15 4.73980 -9.03421 36999 ft 493 kts 118°
2026-04-30 19:16 4.71002 -8.97238 37001 ft 493 kts 118°
2026-04-30 19:17 4.66544 -8.87989 37000 ft 493 kts 118°
2026-04-30 19:17 4.62093 -8.78756 37000 ft 492 kts 118°
2026-04-30 19:18 4.57624 -8.69489 37001 ft 492 kts 118°
2026-04-30 19:19 4.54664 -8.63351 37002 ft 492 kts 118°
2026-04-30 19:19 4.50200 -8.54099 37001 ft 492 kts 118°
2026-04-30 19:20 4.47221 -8.47927 36999 ft 492 kts 118°
2026-04-30 19:21 4.42757 -8.38678 37000 ft 492 kts 118°
2026-04-30 19:22 4.36802 -8.26344 37000 ft 492 kts 118°
2026-04-30 19:23 4.27886 -8.07886 37001 ft 492 kts 118°
2026-04-30 19:24 4.23423 -7.98652 37001 ft 491 kts 118°
2026-04-30 19:25 4.15991 -7.83279 37000 ft 491 kts 118°
2026-04-30 19:26 4.10056 -7.71006 37001 ft 491 kts 118°
2026-04-30 19:27 4.05586 -7.61767 37000 ft 491 kts 118°
2026-04-30 19:28 4.01446 -7.52424 37000 ft 494 kts 109°
2026-04-30 19:28 4.00129 -7.45705 37001 ft 498 kts 96°
2026-04-30 19:29 4.00042 -7.38747 37000 ft 499 kts 91°
2026-04-30 19:30 4.00100 -7.24849 37000 ft 499 kts 91°
2026-04-30 19:31 4.00151 -7.11019 37000 ft 499 kts 91°
2026-04-30 19:31 4.00187 -7.00617 37001 ft 499 kts 91°
2026-04-30 19:32 4.00210 -6.93703 36999 ft 499 kts 91°
2026-04-30 19:32 4.00232 -6.86758 36999 ft 498 kts 91°
2026-04-30 19:33 4.00254 -6.79821 37000 ft 499 kts 91°
2026-04-30 19:33 4.00274 -6.72898 37000 ft 499 kts 91°
2026-04-30 19:34 4.00294 -6.65977 36999 ft 499 kts 91°
2026-04-30 19:35 4.00323 -6.55583 37000 ft 499 kts 91°
2026-04-30 19:35 4.00342 -6.48649 37000 ft 498 kts 91°
2026-04-30 19:36 4.00360 -6.41716 37000 ft 498 kts 91°
2026-04-30 19:36 4.00386 -6.31357 37000 ft 498 kts 91°
2026-04-30 19:37 4.00402 -6.24415 36999 ft 498 kts 91°
2026-04-30 19:37 4.00418 -6.17512 37000 ft 498 kts 91°
2026-04-30 19:38 4.00434 -6.10577 37000 ft 498 kts 91°
2026-04-30 19:38 4.00449 -6.03672 37000 ft 498 kts 91°
2026-04-30 19:39 4.00463 -5.96749 37000 ft 498 kts 91°
2026-04-30 19:39 4.00477 -5.89833 36999 ft 498 kts 91°
2026-04-30 19:40 4.00490 -5.82928 36999 ft 498 kts 91°
2026-04-30 19:40 4.00502 -5.76022 37000 ft 497 kts 91°
2026-04-30 19:41 4.00514 -5.69125 37000 ft 497 kts 91°
2026-04-30 19:41 4.00526 -5.62211 36999 ft 498 kts 91°
2026-04-30 19:42 4.00537 -5.55277 37000 ft 498 kts 91°
2026-04-30 19:42 4.00547 -5.48364 37001 ft 498 kts 91°
2026-04-30 19:43 4.00557 -5.41463 37001 ft 497 kts 91°
2026-04-30 19:44 4.00571 -5.31077 36999 ft 497 kts 91°
2026-04-30 19:44 4.00579 -5.24146 37001 ft 497 kts 91°
2026-04-30 19:45 4.00587 -5.17274 37000 ft 497 kts 91°
2026-04-30 19:45 4.00594 -5.10335 37000 ft 497 kts 91°
2026-04-30 19:46 4.00601 -5.03426 37000 ft 497 kts 92°
2026-04-30 19:46 4.00607 -4.96511 37000 ft 497 kts 91°
2026-04-30 19:47 4.00613 -4.89632 36999 ft 497 kts 91°
2026-04-30 19:47 4.00618 -4.82717 37000 ft 497 kts 91°
2026-04-30 19:48 4.00622 -4.75809 37000 ft 497 kts 91°
2026-04-30 19:48 4.00626 -4.68892 37000 ft 497 kts 91°
2026-04-30 19:49 4.00630 -4.62028 37000 ft 497 kts 91°
2026-04-30 19:49 4.00634 -4.51641 36999 ft 497 kts 92°
2026-04-30 19:50 4.00636 -4.44791 37000 ft 497 kts 91°
2026-04-30 19:50 4.00638 -4.37879 36999 ft 497 kts 92°
2026-04-30 19:51 4.00638 -4.30910 36999 ft 497 kts 92°
2026-04-30 19:51 4.00639 -4.24045 36999 ft 496 kts 91°
2026-04-30 19:52 4.00639 -4.17129 37000 ft 496 kts 91°
2026-04-30 19:52 4.00638 -4.10239 36999 ft 496 kts 91°
2026-04-30 19:53 4.00637 -4.03327 37000 ft 497 kts 92°
2026-04-30 19:53 4.00635 -3.96441 37000 ft 496 kts 92°
2026-04-30 19:54 4.00633 -3.89554 37000 ft 496 kts 92°
2026-04-30 19:54 4.00630 -3.82645 37000 ft 496 kts 92°
2026-04-30 19:55 4.00626 -3.75755 37000 ft 496 kts 92°
2026-04-30 19:55 4.00622 -3.68854 37000 ft 496 kts 92°
2026-04-30 19:56 4.00617 -3.61922 37000 ft 496 kts 92°
2026-04-30 19:56 4.00612 -3.55017 37000 ft 496 kts 92°
2026-04-30 19:57 4.00606 -3.48123 37000 ft 496 kts 91°
2026-04-30 19:57 4.00600 -3.41246 37000 ft 496 kts 92°
2026-04-30 19:58 4.00593 -3.34333 37000 ft 496 kts 92°
2026-04-30 19:58 4.00586 -3.27431 36999 ft 496 kts 92°
2026-04-30 19:59 4.00577 -3.20557 36999 ft 496 kts 92°
2026-04-30 20:00 4.00564 -3.10208 36999 ft 496 kts 92°
2026-04-30 20:00 4.00554 -3.03322 37000 ft 496 kts 92°
2026-04-30 20:01 4.00539 -2.93018 37000 ft 496 kts 92°
2026-04-30 20:01 4.00528 -2.86125 37000 ft 496 kts 92°
2026-04-30 20:02 4.00510 -2.75792 37000 ft 495 kts 92°
2026-04-30 20:03 4.00491 -2.65454 36999 ft 495 kts 92°
2026-04-30 20:03 4.00478 -2.58584 37000 ft 495 kts 92°
2026-04-30 20:04 4.00464 -2.51702 37000 ft 495 kts 92°
2026-04-30 20:05 4.00442 -2.41409 37000 ft 495 kts 92°
2026-04-30 20:05 4.00419 -2.31032 36999 ft 495 kts 92°
2026-04-30 20:06 4.00403 -2.24190 36999 ft 495 kts 92°
2026-04-30 20:06 4.00386 -2.17316 36999 ft 495 kts 92°
2026-04-30 20:07 4.00368 -2.10420 37000 ft 495 kts 92°
2026-04-30 20:08 4.00341 -2.00106 36999 ft 495 kts 92°
2026-04-30 20:08 4.00323 -1.93254 36999 ft 495 kts 92°
2026-04-30 20:09 4.00303 -1.86375 36999 ft 495 kts 92°
2026-04-30 20:09 4.00273 -1.76075 36999 ft 495 kts 92°
2026-04-30 20:10 4.00241 -1.65736 36999 ft 495 kts 92°
2026-04-30 20:11 4.00209 -1.55472 36999 ft 494 kts 92°
2026-04-30 20:11 4.00186 -1.48604 36999 ft 495 kts 92°
2026-04-30 20:12 4.00151 -1.38309 36999 ft 495 kts 92°
2026-04-30 20:13 4.00127 -1.31413 36999 ft 494 kts 92°
2026-04-30 20:13 4.00102 -1.24513 36999 ft 495 kts 92°
2026-04-30 20:14 4.00077 -1.17684 36998 ft 495 kts 92°
2026-04-30 20:14 3.99770 -1.10847 36999 ft 491 kts 101°
2026-04-30 20:15 3.98033 -1.04298 36998 ft 485 kts 115°
2026-04-30 20:15 3.95278 -0.98147 36998 ft 484 kts 117°
2026-04-30 20:16 3.92476 -0.92001 36998 ft 485 kts 117°
2026-04-30 20:16 3.89683 -0.85893 36997 ft 485 kts 117°
2026-04-30 20:17 3.86875 -0.79763 36999 ft 484 kts 117°
2026-04-30 20:17 3.84062 -0.73631 36998 ft 484 kts 117°
2026-04-30 20:18 3.81266 -0.67545 36999 ft 484 kts 118°
2026-04-30 20:18 3.78456 -0.61436 36998 ft 484 kts 118°
2026-04-30 20:19 3.75640 -0.55316 36999 ft 484 kts 118°
2026-04-30 20:19 3.72830 -0.49215 36998 ft 484 kts 117°
2026-04-30 20:20 3.70002 -0.43080 36998 ft 484 kts 118°
2026-04-30 20:20 3.67194 -0.36989 36999 ft 484 kts 118°
2026-04-30 20:21 3.64369 -0.30865 36998 ft 484 kts 118°
2026-04-30 20:21 3.61555 -0.24768 36998 ft 484 kts 118°
2026-04-30 20:22 3.58745 -0.18680 36998 ft 484 kts 118°
2026-04-30 20:22 3.55914 -0.12550 36998 ft 483 kts 118°
2026-04-30 20:23 3.53104 -0.06467 36999 ft 483 kts 118°
2026-04-30 20:23 3.50285 -0.00366 36998 ft 484 kts 118°
2026-04-30 20:24 3.47465 0.05734 36998 ft 483 kts 118°
2026-04-30 20:24 3.44660 0.11804 36998 ft 484 kts 118°
2026-04-30 20:25 3.40413 0.20987 36998 ft 483 kts 118°
2026-04-30 20:26 3.36198 0.30099 36998 ft 483 kts 118°
2026-04-30 20:26 3.31964 0.39246 36998 ft 483 kts 118°
2026-04-30 20:27 3.26332 0.51412 36998 ft 483 kts 118°
2026-04-30 20:28 3.20728 0.63511 36998 ft 483 kts 118°
2026-04-30 20:30 3.13682 0.78718 36999 ft 482 kts 118°
2026-04-30 20:31 3.05230 0.96950 36999 ft 482 kts 118°
2026-04-30 20:32 2.98191 1.12124 36998 ft 482 kts 118°
2026-04-30 20:33 2.93964 1.21235 36998 ft 482 kts 118°
2026-04-30 20:34 2.89740 1.30336 36998 ft 482 kts 118°
2026-04-30 20:35 2.85511 1.39447 36999 ft 482 kts 118°
2026-04-30 20:35 2.81281 1.48559 36997 ft 482 kts 118°
2026-04-30 20:36 2.78466 1.54619 36998 ft 482 kts 118°
2026-04-30 20:37 2.74246 1.63705 36998 ft 481 kts 118°
2026-04-30 20:37 2.71419 1.69792 36998 ft 481 kts 118°
2026-04-30 20:38 2.68610 1.75836 36998 ft 481 kts 118°
2026-04-30 20:38 2.65787 1.81913 36999 ft 481 kts 118°
2026-04-30 20:39 2.61571 1.90983 36998 ft 481 kts 118°
2026-04-30 20:40 2.57349 2.00066 36998 ft 481 kts 118°
2026-04-30 20:40 2.54523 2.06145 36998 ft 481 kts 118°
2026-04-30 20:41 2.50312 2.15202 36997 ft 481 kts 118°
2026-04-30 20:41 2.47489 2.21273 36998 ft 481 kts 118°
2026-04-30 20:42 2.44694 2.27284 36998 ft 481 kts 118°
2026-04-30 20:43 2.40467 2.36372 36998 ft 480 kts 118°
2026-04-30 20:43 2.37646 2.42435 36998 ft 481 kts 118°
2026-04-30 20:44 2.33428 2.51502 36998 ft 480 kts 118°
2026-04-30 20:45 2.27800 2.63598 36997 ft 480 kts 118°
2026-04-30 20:45 2.25000 2.69616 36998 ft 480 kts 118°
2026-04-30 20:46 2.19362 2.81730 36998 ft 480 kts 118°
2026-04-30 20:47 2.15153 2.90775 36998 ft 480 kts 118°
2026-04-30 20:48 2.10936 2.99834 36998 ft 480 kts 118°
2026-04-30 20:48 2.08131 3.05860 36998 ft 480 kts 118°
2026-04-30 20:49 2.05326 3.11888 36998 ft 480 kts 118°
2026-04-30 20:50 2.01099 3.20968 36998 ft 480 kts 118°
2026-04-30 20:50 1.98295 3.26991 36997 ft 480 kts 118°
2026-04-30 20:51 1.95483 3.33031 36998 ft 479 kts 118°
2026-04-30 20:51 1.91276 3.42067 36998 ft 480 kts 118°
2026-04-30 20:52 1.88459 3.48117 36998 ft 480 kts 118°
2026-04-30 20:53 1.84254 3.57148 36998 ft 480 kts 118°
2026-04-30 20:53 1.81427 3.63219 36998 ft 479 kts 118°
2026-04-30 20:54 1.77226 3.72240 36997 ft 479 kts 118°
2026-04-30 20:55 1.73022 3.81268 36998 ft 479 kts 118°
2026-04-30 20:55 1.70212 3.87301 36997 ft 479 kts 118°
2026-04-30 20:56 1.66006 3.96332 36997 ft 479 kts 118°
2026-04-30 20:57 1.61790 4.05384 36997 ft 479 kts 118°
2026-04-30 20:57 1.58989 4.11399 36997 ft 478 kts 118°
2026-04-30 20:58 1.54792 4.20409 36998 ft 478 kts 118°
2026-04-30 20:58 1.51991 4.26420 36997 ft 478 kts 118°
2026-04-30 20:59 1.47781 4.35459 36997 ft 478 kts 118°
2026-04-30 21:00 1.42176 4.47493 36997 ft 478 kts 118°
2026-04-30 21:01 1.37982 4.56497 36997 ft 478 kts 118°
2026-04-30 21:02 1.33780 4.65515 36997 ft 478 kts 118°
2026-04-30 21:02 1.30983 4.71519 36997 ft 477 kts 118°
2026-04-30 21:03 1.28174 4.77547 36997 ft 478 kts 118°
2026-04-30 21:03 1.25386 4.83532 36997 ft 478 kts 118°
2026-04-30 21:04 1.22576 4.89563 36997 ft 478 kts 118°
2026-04-30 21:04 1.18381 4.98568 36997 ft 478 kts 118°
2026-04-30 21:05 1.15581 5.04578 36995 ft 478 kts 118°
2026-04-30 21:05 1.12785 5.10578 36997 ft 477 kts 118°
2026-04-30 21:06 1.09988 5.16580 36997 ft 478 kts 118°
2026-04-30 21:06 1.07199 5.22565 36997 ft 477 kts 118°
2026-04-30 21:07 1.04396 5.28580 36997 ft 477 kts 118°
2026-04-30 21:07 1.01590 5.34603 36997 ft 477 kts 118°
2026-04-30 21:08 0.98789 5.40614 36997 ft 477 kts 118°
2026-04-30 21:08 0.95985 5.46630 36999 ft 477 kts 118°
2026-04-30 21:09 0.93183 5.52646 36995 ft 477 kts 118°
2026-04-30 21:09 0.90400 5.58639 36996 ft 477 kts 118°
2026-04-30 21:10 0.87609 5.64649 36997 ft 477 kts 118°
2026-04-30 21:10 0.84827 5.70640 36996 ft 477 kts 118°
2026-04-30 21:11 0.82041 5.76638 36997 ft 477 kts 118°
2026-04-30 21:11 0.79243 5.82662 36997 ft 477 kts 118°
2026-04-30 21:12 0.76464 5.88643 36996 ft 477 kts 118°
2026-04-30 21:12 0.73663 5.94674 36997 ft 477 kts 118°
2026-04-30 21:13 0.70891 6.00639 36997 ft 477 kts 118°
2026-04-30 21:13 0.68102 6.06644 36997 ft 477 kts 118°
2026-04-30 21:14 0.65302 6.12670 36997 ft 477 kts 118°
2026-04-30 21:14 0.62514 6.18670 36997 ft 477 kts 118°
2026-04-30 21:15 0.59729 6.24665 36997 ft 477 kts 118°
2026-04-30 21:15 0.56940 6.30666 36997 ft 477 kts 118°
2026-04-30 21:16 0.54155 6.36661 36996 ft 477 kts 118°
2026-04-30 21:16 0.51371 6.42651 36997 ft 477 kts 118°
2026-04-30 21:17 0.48572 6.48675 36998 ft 477 kts 118°
2026-04-30 21:17 0.45792 6.54657 37002 ft 477 kts 118°
2026-04-30 21:18 0.43011 6.60645 37005 ft 476 kts 118°
2026-04-30 21:18 0.40250 6.66685 37006 ft 477 kts 115°
2026-04-30 21:19 0.38458 6.73062 37002 ft 470 kts 102°
2026-04-30 21:19 0.38138 6.76262 36976 ft 458 kts 95°
2026-04-30 21:19 0.38135 6.79425 36731 ft 453 kts 91°
2026-04-30 21:20 0.38255 6.82540 36483 ft 449 kts 90°
2026-04-30 21:20 0.38372 6.85637 36236 ft 446 kts 90°
2026-04-30 21:20 0.38488 6.88721 35988 ft 445 kts 91°
2026-04-30 21:20 0.38604 6.91814 35740 ft 444 kts 90°
2026-04-30 21:21 0.38719 6.94869 35494 ft 444 kts 90°
2026-04-30 21:21 0.38836 6.97959 35247 ft 444 kts 90°
2026-04-30 21:21 0.39068 7.04125 34755 ft 444 kts 90°
2026-04-30 21:22 0.39184 7.07183 34513 ft 445 kts 90°
2026-04-30 21:22 0.39534 7.16438 33803 ft 446 kts 90°
2026-04-30 21:23 0.39652 7.19560 33555 ft 447 kts 90°
2026-04-30 21:23 0.39769 7.22642 33310 ft 446 kts 90°
2026-04-30 21:23 0.40002 7.28793 32816 ft 443 kts 90°
2026-04-30 21:24 0.40119 7.31875 32567 ft 442 kts 90°
2026-04-30 21:24 0.40235 7.34921 32322 ft 441 kts 90°
2026-04-30 21:24 0.40350 7.37960 32077 ft 439 kts 90°
2026-04-30 21:24 0.40466 7.41016 31828 ft 438 kts 90°
2026-04-30 21:25 0.40695 7.47046 31337 ft 436 kts 90°
2026-04-30 21:25 0.40809 7.50048 31092 ft 434 kts 90°
2026-04-30 21:25 0.40924 7.53086 30841 ft 433 kts 90°
2026-04-30 21:26 0.41151 7.59074 30354 ft 430 kts 90°
2026-04-30 21:26 0.41263 7.62039 30103 ft 429 kts 90°
2026-04-30 21:27 0.41489 7.67987 29607 ft 426 kts 90°
2026-04-30 21:27 0.41602 7.70957 29356 ft 424 kts 90°
2026-04-30 21:27 0.41712 7.73869 29112 ft 423 kts 90°
2026-04-30 21:28 0.41934 7.79722 28614 ft 419 kts 89°
2026-04-30 21:28 0.42045 7.82634 28366 ft 417 kts 90°
2026-04-30 21:28 0.42264 7.88434 27865 ft 413 kts 89°
2026-04-30 21:29 0.42372 7.91269 27621 ft 412 kts 89°
2026-04-30 21:29 0.42694 7.99768 26879 ft 406 kts 89°
2026-04-30 21:30 0.42907 8.05405 26378 ft 403 kts 89°
2026-04-30 21:31 0.44053 8.13681 25084 ft 403 kts 79°
2026-04-30 21:31 0.45166 8.19146 23990 ft 398 kts 79°
2026-04-30 21:32 0.46239 8.24418 22996 ft 379 kts 79°
2026-04-30 21:32 0.46753 8.26943 22500 ft 372 kts 79°
2026-04-30 21:32 0.47263 8.29452 22015 ft 372 kts 79°
2026-04-30 21:32 0.47777 8.31981 21523 ft 370 kts 79°
2026-04-30 21:33 0.48287 8.34487 21087 ft 369 kts 80°
2026-04-30 21:33 0.49302 8.39485 20066 ft 367 kts 80°
2026-04-30 21:33 0.49810 8.41981 19573 ft 364 kts 80°
2026-04-30 21:34 0.50307 8.44430 19098 ft 362 kts 80°
2026-04-30 21:34 0.51297 8.49301 18150 ft 356 kts 80°
2026-04-30 21:34 0.51792 8.51738 17674 ft 353 kts 80°
2026-04-30 21:35 0.52279 8.54135 17207 ft 350 kts 80°
2026-04-30 21:35 0.52757 8.56489 16747 ft 347 kts 80°
2026-04-30 21:35 0.53240 8.58863 16286 ft 344 kts 80°
2026-04-30 21:35 0.53712 8.61186 15833 ft 341 kts 80°
2026-04-30 21:36 0.54177 8.63475 15387 ft 338 kts 81°
2026-04-30 21:36 0.54644 8.65777 14938 ft 335 kts 81°
2026-04-30 21:37 0.56016 8.72533 13625 ft 326 kts 81°
2026-04-30 21:37 0.56469 8.74761 13188 ft 323 kts 81°
2026-04-30 21:37 0.56912 8.76940 12762 ft 320 kts 81°
2026-04-30 21:37 0.57349 8.79092 12345 ft 317 kts 81°
2026-04-30 21:38 0.57786 8.81246 11929 ft 313 kts 81°
2026-04-30 21:38 0.58201 8.83373 11514 ft 309 kts 84°
2026-04-30 21:38 0.58386 8.85471 11105 ft 304 kts 90°
2026-04-30 21:38 0.58512 8.87566 10703 ft 301 kts 90°
2026-04-30 21:39 0.58642 8.89656 10305 ft 297 kts 90°
2026-04-30 21:39 0.58769 8.91687 9915 ft 294 kts 91°
2026-04-30 21:39 0.58897 8.93716 9616 ft 287 kts 90°
2026-04-30 21:39 0.59021 8.95698 9203 ft 285 kts 90°
2026-04-30 21:40 0.59142 8.97643 8838 ft 281 kts 89°
2026-04-30 21:40 0.59264 8.99582 8464 ft 278 kts 90°
2026-04-30 21:40 0.59384 9.01496 8097 ft 275 kts 90°
2026-04-30 21:40 0.59504 9.03402 7735 ft 272 kts 90°
2026-04-30 21:41 0.59621 9.05272 7379 ft 269 kts 90°
2026-04-30 21:41 0.59736 9.07111 7024 ft 266 kts 89°
2026-04-30 21:41 0.59851 9.08937 6682 ft 263 kts 89°
2026-04-30 21:41 0.59917 9.10743 6332 ft 259 kts 92°
2026-04-30 21:42 0.59948 9.12547 5986 ft 256 kts 91°
2026-04-30 21:42 0.59980 9.14315 5643 ft 253 kts 92°
2026-04-30 21:42 0.60011 9.16051 5332 ft 245 kts 91°
2026-04-30 21:42 0.60042 9.17719 4992 ft 234 kts 90°
2026-04-30 21:43 0.60071 9.19302 4694 ft 228 kts 91°
2026-04-30 21:43 0.60098 9.20877 4400 ft 225 kts 90°
2026-04-30 21:43 0.60126 9.22430 4113 ft 224 kts 89°
2026-04-30 21:43 0.60484 9.23950 4047 ft 225 kts 69°
2026-04-30 21:44 0.61164 9.25350 4049 ft 226 kts 67°
2026-04-30 21:44 0.61850 9.26759 3809 ft 228 kts 66°
2026-04-30 21:44 0.62543 9.28185 3280 ft 224 kts 65°
2026-04-30 21:44 0.63202 9.29556 2764 ft 214 kts 69°
2026-04-30 21:45 0.63486 9.30971 2284 ft 201 kts 93°
2026-04-30 21:45 0.63117 9.32227 2087 ft 179 kts 117°
2026-04-30 21:45 0.62336 9.33125 2067 ft 168 kts 134°
2026-04-30 21:45 0.61350 9.33751 2065 ft 165 kts 149°
2026-04-30 21:46 0.60324 9.34251 2057 ft 165 kts 150°
2026-04-30 21:46 0.59285 9.34752 2071 ft 164 kts 149°
2026-04-30 21:46 0.58271 9.35240 2090 ft 150 kts 149°
2026-04-30 21:46 0.57428 9.35639 2121 ft 124 kts 150°
2026-04-30 21:47 0.56652 9.36018 2076 ft 123 kts 149°
2026-04-30 21:47 0.55885 9.36389 1996 ft 121 kts 147°
2026-04-30 21:47 0.55137 9.36750 1821 ft 117 kts 146°
2026-04-30 21:47 0.54411 9.37102 1701 ft 120 kts 148°
2026-04-30 21:48 0.53656 9.37468 1493 ft 116 kts 147°
2026-04-30 21:48 0.52925 9.37821 1402 ft 124 kts 149°
2026-04-30 21:48 0.52164 9.38189 1198 ft 114 kts 148°
2026-04-30 21:48 0.51434 9.38533 962 ft 113 kts 151°
2026-04-30 21:49 0.50712 9.38862 794 ft 113 kts 150°
2026-04-30 21:49 0.50016 9.39219 671 ft 115 kts 147°
2026-04-30 21:49 0.49302 9.39565 534 ft 115 kts 149°
2026-04-30 21:49 0.48579 9.39893 441 ft 114 kts 149°
2026-04-30 21:50 0.47878 9.40251 284 ft 111 kts 149°
2026-04-30 21:50 0.47182 9.40584 115 ft 111 kts 149°
2026-04-30 21:50 0.46545 9.40884 58 ft 88 kts 147°
2026-04-30 21:50 0.46286 9.41021 54 ft 7 kts 152°
2026-04-30 21:51 0.46223 9.41053 54 ft 11 kts 153°
2026-04-30 21:51 0.46160 9.41050 54 ft 10 kts 239°
2026-04-30 21:51 0.46131 9.40996 53 ft 9 kts 241°
2026-04-30 21:51 0.46102 9.40952 53 ft 6 kts 206°
2026-04-30 21:52 0.46065 9.40960 53 ft 8 kts 152°
2026-04-30 21:52 0.46028 9.40977 54 ft 2 kts 188°
2026-04-30 21:52 0.46019 9.40968 54 ft 5 kts 243°
2026-04-30 21:52 0.46007 9.40941 54 ft 0 kts 246°
2026-04-30 21:53 0.46006 9.40939 53 ft 0 kts 245°